Location: Ripley
(48.3812°N, 115.4473°W)
Time: 20:31:35
(UTC+00:00)

ESTCUBE 1 - Visible Passes

Search period start: 27 June 2022 00:00
Search period end: 07 July 2022 00:00
Orbit: 644 x 659 km, 97.9° (Epoch: 27 June)

Date Brightness Start Highest point End Pass type
(mag) Time Alt. Az. Time Alt. Az. Time Alt. Az.
27 Jun ? 05:05:10 13° SE 05:08:48 40° ENE 05:13:00 10° N visible
27 Jun ? 06:42:59 14° SW 06:45:41 24° W 06:49:22 10° NW visible
28 Jun ? 05:32:29 18° SSE 05:35:43 73° ENE 05:40:11 10° N visible
28 Jun ? 07:10:43 10° WSW 07:13:00 14° W 07:15:17 10° WNW visible
29 Jun ? 04:23:25 10° ESE 04:26:25 18° ENE 04:29:26 10° NNE visible
29 Jun ? 05:59:47 20° S 06:02:44 62° W 06:07:11 10° NNW visible
30 Jun ? 04:49:18 10° SE 04:53:11 30° ENE 04:57:04 10° N visible
30 Jun ? 06:27:06 18° SSW 06:29:51 34° W 06:33:56 10° NNW visible
01 Jul ? 05:16:36 16° SE 05:20:01 52° ENE 05:24:23 10° N visible
01 Jul ? 06:54:25 12° SW 06:57:05 19° W 07:00:18 10° NW visible
02 Jul ? 05:43:55 20° SSE 05:46:59 87° WSW 05:51:29 10° NNW visible
02 Jul ? 07:23:33 10° W 07:24:25 10° W 07:25:18 10° WNW visible
03 Jul ? 04:34:08 10° ESE 04:37:34 22° ENE 04:41:01 10° NNE visible
03 Jul ? 06:11:13 20° SSW 06:14:02 47° W 06:18:23 10° NNW visible
04 Jul ? 05:00:43 13° SE 05:04:21 37° ENE 05:08:29 10° N visible
04 Jul ? 06:38:32 16° SW 06:41:12 26° W 06:44:59 10° NW visible
05 Jul ? 05:28:02 18° SSE 05:31:14 67° ENE 05:35:42 10° N visible
05 Jul ? 07:05:52 10° SW 07:08:28 15° W 07:11:04 10° NW visible
06 Jul ? 05:55:21 21° S 05:58:13 68° WSW 06:02:43 10° NNW visible
